Location: Amsterdam
(30.7274°N, 84.4357°W)
Time: 20:30:57
(UTC+00:00)

Tiros 1 despin weight - Pass Details

Date: 26 February 2026
Orbit: 556 x 593 km, 48.2° (Epoch: 7 March)

Event Time Altitude Azimuth Distance (km) Brightness Sun altitude
Rises 15:27:37 0° 208° (SSW) 2,778 ? 37.9°
Reaches altitude 10° 15:30:01 10° 199° (SSW) 1,875 ? 38.3°
Maximum altitude 15:33:56 35° 133° (SE) 924 ? 38.9°
Drops below altitude 10° 15:37:50 10° 67° (ENE) 1,861 ? 39.5°
Sets 15:40:12 0° 59° (ENE) 2,754 ? 39.8°
